Location: Gazon
(48.1318°N, 1.2708°W)
Time: 22:10:31
(UTC+00:00)

Cosmos 1513 Rocket - Pass Details

Date: 18 September 2020
Orbit: 939 x 1009 km, 82.9° (Epoch: 25 October)

Event Time Altitude Azimuth Distance (km) Brightness Sun altitude
Rises 19:33:46 0° 184° (S) 3,693 7.4 -14.4°
Reaches altitude 10° 19:36:18 10° 183° (S) 2,739 6.7 -14.8°
Maximum altitude 19:42:35 82° 98° (E) 989 4.4 -15.8°
Drops below altitude 10° 19:48:48 10° 11° (N) 2,708 7.0 -16.8°
Sets 19:51:17 0° 10° (N) 3,649 7.7 -17.2°
